SL-8 DEB *, 6252

Orbit data source: Space-Track

SL-8 DEB *, 6252 is space debris in LEO originally from a launch on Mon, 15 Mar 1965 UTC launched from the Tyuratam Missile And Space Complex (TTMTR). Debris objects in space refer to the collection of defunct objects orbiting the Earth. Examples of debris include non-operational satellites, rocket bodies, and fragments generated from explosions, collisions, or faulty payload assembly.

Loading next visibility...
Identifier
6252, 1965-020FD
Orbit
LEO
Country
Flag of CISCIS
Related business
Manufacturer
Unknown
Mission
Spacecraft
Bus & Motor
Unknown
Mass
Unknown
Launch date (UTC)
1965-03-15 (61 years ago)
Launch vehicle
Unknown
Launch site
Tyuratam Missile And Space Complex (TTMTR)
Object type
Payload
Rocket body
Debris
Shape & HBR
Unknown shape, 0.1 m
Radar Cross Section
Small (<0.1 m²)

Expand to show TLE details & history
Last TLE update: 11 hours ago

TLE from 11 hours ago
0 SL-8 DEB *
1  6252U 65020FD  25289.14195920  .00000035  00000-0  99640-3 0  9994
2  6252  56.0398 330.7798 0193613 317.3579  73.3195 12.30070217635053
Epoch: 2025-10-16T03:24Z
TLE epoch observation values (Epoch: 2025-10-16T03:24:25.274Z)
Latitude
26.77627°
Longitude
-85.46442°
Altitude
1,509.12 km
Speed
7.132 km/s
True Right ascension
23h 22m 11s
True Declination
26° 39' 05"
Sunlit
Object was in full shadow at epoch
Visualization orbit readout
Latitude
Unknown
Longitude
Unknown
Altitude
Unknown
Speed
Unknown
Apparent Right ascension
Unknown
Apparent Declination
Unknown
Sunlit
N/A
Visualization observer readout
Local Sidereal Time
09:08:40
Azimuth
Unknown
Elevation
Unknown
Doppler factor
Unknown
Orbital elements
Apogee altitude
1,702.283 km
Perigee altitude
1,395.331 km
Semi-major axis
7,926.944 km
Eccentricity
0.01936
Inclination
56.0398°
RAAN
330.7798°
Arg. of periapsis
317.3579°
True anomaly
75.45915°
Mean anomaly
73.3195°
Eccentric anomaly
74.38789°
Mean motion
3.07528 °/min
Orbital period
117.06 mins
BSTAR
0.0009964
Loading maneuver chart data...
Computing Atmospheric mass density...

Documentation

Showing up to 5 results
|